FW0827 Weather Reports


Display with metric or nautical units.
time (UTC)temp
F
wind
direction
speed
MPH
gust
MPH
rain 1hr
in
rain 24hr
in
rain mn
in
humidity
%
barometer
mb
20260504223716 68 247 0.0 0.0 0.00 0.00 0.00 47 1026.1
20260504223703 68 257 0.0 5.0 0.00 0.00 0.00 48 1009.4
20260504223212 68 263 1.0 3.0 0.00 0.00 0.00 46 1026.3
20260504223204 68 256 0.0 7.0 0.00 0.00 0.00 46 1009.5
20260504222709 69 227 2.0 7.0 0.00 0.00 0.00 46 1026.0
20260504222206 69 265 0.0 7.0 0.00 0.00 0.00 46 1026.2
20260504221705 69 206 1.0 7.0 0.00 0.00 0.00 45 1009.5
20260504221703 69 205 4.0 7.0 0.00 0.00 0.00 45 1026.2
20260504221203 69 243 2.0 8.0 0.00 0.00 0.00 45 1009.5
20260504221201 69 220 2.0 7.0 0.00 0.00 0.00 44 1026.1
20260504220704 69 225 2.0 5.0 0.00 0.00 0.00 45 1009.4
20260504220656 69 228 3.0 5.0 0.00 0.00 0.00 45 1026.2
20260504220203 69 241 0.0 3.0 0.00 0.00 0.00 45 1009.4
20260504220155 69 251 0.0 2.0 0.00 0.00 0.00 45 1026.2
20260504215651 69 250 0.0 3.0 0.00 0.00 0.00 45 1026.3
20260504215205 69 240 3.0 8.0 0.00 0.00 0.00 45 1009.6
20260504215148 69 257 2.0 7.0 0.00 0.00 0.00 46 1026.4
20260504214644 69 153 6.0 7.0 0.00 0.00 0.00 45 1026.3
20260504214206 69 210 1.0 7.0 0.00 0.00 0.00 47 1009.5
20260504214140 69 224 0.0 3.0 0.00 0.00 0.00 46 1026.2
20260504213637 69 222 5.0 7.0 0.00 0.00 0.00 44 1026.3
20260504213204 69 200 2.0 3.0 0.00 0.00 0.00 45 1009.7
20260504213134 69 231 1.0 3.0 0.00 0.00 0.00 46 1026.4
20260504212630 69 209 1.0 3.0 0.00 0.00 0.00 45 1026.4
20260504212203 69 197 1.0 7.0 0.00 0.00 0.00 45 1009.7
20260504212127 69 195 0.0 3.0 0.00 0.00 0.00 45 1026.4
20260504211704 69 192 3.0 8.0 0.00 0.00 0.00 46 1009.7
20260504211625 69 188 5.0 7.0 0.00 0.00 0.00 46 1026.3
20260504211203 69 191 3.0 8.0 0.00 0.00 0.00 46 1009.5
20260504211121 69 205 3.0 5.0 0.00 0.00 0.00 46 1026.1
20260504210703 70 207 1.0 9.0 0.00 0.00 0.00 46 1009.7
20260504210619 70 209 0.0 7.0 0.00 0.00 0.00 46 1026.4
20260504210203 69 262 0.0 8.0 0.00 0.00 0.00 47 1009.4
20260504210115 69 262 0.0 2.0 0.00 0.00 0.00 48 1026.1
20260504205613 69 197 1.0 3.0 0.00 0.00 0.00 46 1026.3
20260504205110 70 261 0.0 0.0 0.00 0.00 0.00 46 1026.4
20260504204703 70 245 1.0 5.0 0.00 0.00 0.00 46 1009.8
20260504204608 70 251 0.0 5.0 0.00 0.00 0.00 47 1026.4
20260504204204 69 248 0.0 7.0 0.00 0.00 0.00 47 1009.6
20260504204106 69 248 0.0 0.0 0.00 0.00 0.00 48 1026.3
20260504203704 70 250 0.0 8.0 0.00 0.00 0.00 46 1009.6
20260504203604 70 270 0.0 0.0 0.00 0.00 0.00 46 1026.2
20260504203203 70 197 1.0 8.0 0.00 0.00 0.00 46 1009.7
20260504203101 70 222 1.0 2.0 0.00 0.00 0.00 47 1026.3
20260504202703 69 235 2.0 7.0 0.00 0.00 0.00 48 1009.8
20260504202551 69 223 1.0 3.0 0.00 0.00 0.00 48 1026.5
20260504202203 69 281 2.0 14.0 0.00 0.00 0.00 48 1009.8
20260504202048 69 290 1.0 8.0 0.00 0.00 0.00 49 1026.4
20260504201705 70 216 2.0 7.0 0.00 0.00 0.00 46 1009.8
20260504201545 70 218 3.0 3.0 0.00 0.00 0.00 46 1026.5
20260504201204 70 243 1.0 9.0 0.00 0.00 0.00 46 1010.0
20260504201043 70 250 0.0 7.0 0.00 0.00 0.00 46 1026.6
20260504200703 70 208 7.0 9.0 0.00 0.00 0.00 46 1009.8
20260504200539 71 204 8.0 10.0 0.00 0.00 0.00 46 1026.5
20260504200204 71 191 3.0 9.0 0.00 0.00 0.00 45 1009.9
20260504200036 71 203 2.0 10.0 0.00 0.00 0.00 45 1026.6
20260504195704 71 213 3.0 8.0 0.00 0.00 0.00 44 1010.1
20260504195532 71 227 3.0 5.0 0.00 0.00 0.00 44 1026.8
20260504195205 71 272 0.0 7.0 0.00 0.00 0.00 46 1010.0
20260504195029 71 273 0.0 2.0 0.00 0.00 0.00 46 1026.6
20260504194704 71 230 3.0 8.0 0.00 0.00 0.00 45 1010.2
20260504194526 72 190 6.0 8.0 0.00 0.00 0.00 44 1026.7
20260504194204 72 247 1.0 7.0 0.00 0.00 0.00 47 1010.2
20260504194021 72 256 0.0 2.0 0.00 0.00 0.00 46 1026.8
20260504193704 72 269 0.0 7.0 0.00 0.00 0.00 45 1010.2
20260504193518 72 250 0.0 0.0 0.00 0.00 0.00 45 1026.6
20260504193203 71 230 4.0 7.0 0.00 0.00 0.00 46 1010.2
20260504193017 72 272 3.0 5.0 0.00 0.00 0.00 47 1026.7
20260504192704 71 211 1.0 8.0 0.00 0.00 0.00 45 1010.3
20260504192514 71 241 0.0 5.0 0.00 0.00 0.00 45 1026.9
20260504192204 71 239 1.0 8.0 0.00 0.00 0.00 45 1010.3
20260504192013 71 226 1.0 2.0 0.00 0.00 0.00 44 1027.1
20260504191704 72 212 3.0 8.0 0.00 0.00 0.00 43 1010.5
20260504191510 72 255 4.0 8.0 0.00 0.00 0.00 42 1027.0
20260504191204 71 235 2.0 8.0 0.00 0.00 0.00 44 1010.4
20260504191006 71 211 2.0 8.0 0.00 0.00 0.00 46 1027.2
20260504190705 72 224 3.0 7.0 0.00 0.00 0.00 45 1010.5
20260504190501 72 211 4.0 7.0 0.00 0.00 0.00 43 1027.2
20260504190203 72 232 2.0 5.0 0.00 0.00 0.00 45 1010.4
20260504185958 72 194 4.0 5.0 0.00 0.00 0.00 44 1027.4
20260504185455 71 270 0.0 5.0 0.00 0.00 0.00 46 1027.3
20260504185204 71 225 5.0 8.0 0.00 0.00 0.00 43 1010.7
20260504184951 71 191 5.0 8.0 0.00 0.00 0.00 42 1027.4
20260504184705 71 258 2.0 7.0 0.00 0.00 0.00 45 1010.7
20260504184447 71 217 5.0 7.0 0.00 0.00 0.00 45 1027.4
20260504184204 71 261 1.0 12.0 0.00 0.00 0.00 44 1010.6
20260504183942 71 221 2.0 3.0 0.00 0.00 0.00 44 1027.3
20260504183705 72 218 2.0 9.0 0.00 0.00 0.00 42 1010.9
20260504183440 72 213 4.0 8.0 0.00 0.00 0.00 45 1027.7
20260504183204 72 243 1.0 7.0 0.00 0.00 0.00 44 1010.9
20260504182938 72 205 3.0 5.0 0.00 0.00 0.00 42 1027.6
20260504182704 71 229 1.0 5.0 0.00 0.00 0.00 41 1011.0
20260504182434 71 274 0.0 0.0 0.00 0.00 0.00 43 1027.5
20260504182205 70 234 2.0 7.0 0.00 0.00 0.00 43 1011.0
20260504181932 70 254 3.0 5.0 0.00 0.00 0.00 43 1027.7
20260504181704 70 236 2.0 8.0 0.00 0.00 0.00 45 1011.0
20260504181428 70 233 2.0 5.0 0.00 0.00 0.00 43 1027.8
20260504181204 70 225 5.0 8.0 0.00 0.00 0.00 43 1011.2
20260504180927 70 222 3.0 5.0 0.00 0.00 0.00 45 1028.0
20260504180704 70 256 3.0 8.0 0.00 0.00 0.00 44 1011.2
20260504180426 69 230 0.0 7.0 0.00 0.00 0.00 45 1027.9
20260504180203 70 205 3.0 8.0 0.00 0.00 0.00 44 1011.4
20260504175924 71 212 5.0 8.0 0.00 0.00 0.00 43 1028.2
20260504175704 71 261 0.0 5.0 0.00 0.00 0.00 47 1011.5
20260504175421 71 263 0.0 0.0 0.00 0.00 0.00 47 1028.3
20260504175204 70 230 1.0 7.0 0.00 0.00 0.00 46 1011.7
20260504174918 70 288 4.0 7.0 0.00 0.00 0.00 46 1028.2
20260504174705 70 211 2.0 7.0 0.00 0.00 0.00 44 1011.5
20260504174415 70 275 1.0 5.0 0.00 0.00 0.00 45 1028.3
20260504174204 70 249 1.0 7.0 0.00 0.00 0.00 48 1011.6
20260504173913 70 264 1.0 7.0 0.00 0.00 0.00 43 1028.3
20260504173409 70 226 5.0 7.0 0.00 0.00 0.00 46 1028.5
20260504173204 70 219 2.0 8.0 0.00 0.00 0.00 44 1011.8
20260504172907 70 221 1.0 8.0 0.00 0.00 0.00 45 1028.7
20260504172705 70 197 3.0 7.0 0.00 0.00 0.00 46 1011.8
20260504172403 70 217 2.0 7.0 0.00 0.00 0.00 44 1028.5
20260504172204 70 255 1.0 8.0 0.00 0.00 0.00 46 1012.1
20260504171859 71 256 3.0 8.0 0.00 0.00 0.00 46 1028.7
20260504171703 70 317 0.0 1.0 0.00 0.00 0.00 48 1011.9
20260504171356 69 229 0.0 2.0 0.00 0.00 0.00 45 1028.8
20260504171203 69 238 0.0 8.0 0.00 0.00 0.00 45 1012.1
20260504170853 68 204 3.0 5.0 0.00 0.00 0.00 47 1028.7
20260504170705 68 256 1.0 9.0 0.00 0.00 0.00 44 1012.2
20260504170349 68 250 0.0 2.0 0.00 0.00 0.00 43 1028.9
20260504170203 68 202 5.0 8.0 0.00 0.00 0.00 45 1012.3
20260504160309 68 209 2.0 5.0 0.00 0.00 0.00 47 1029.6
20260504160202 67 258 0.0 7.0 0.00 0.00 0.00 45 1012.8
20260504150734 66 189 3.0 5.0 0.00 0.00 0.00 47 1030.0
20260504150703 66 206 2.0 7.0 0.00 0.00 0.00 46 1013.4
20260504150231 66 255 0.0 2.0 0.00 0.00 0.00 46 1029.9
20260504150204 66 232 1.0 7.0 0.00 0.00 0.00 48 1013.6
20260504141202 63 273 0.0 5.0 0.00 0.00 0.00 58 1013.6
20260504141200 63 274 0.0 0.0 0.00 0.00 0.00 60 1030.4
20260504140704 63 210 2.0 5.0 0.00 0.00 0.00 56 1013.8
20260504140657 63 261 0.0 3.0 0.00 0.00 0.00 57 1030.3
20260504140204 64 218 2.0 5.0 0.00 0.00 0.00 58 1013.7
20260504140152 63 204 2.0 3.0 0.00 0.00 0.00 58 1030.3
20260504130703 59 217 0.0 5.0 0.00 0.00 0.00 66 1014.2
20260504130621 59 212 0.0 3.0 0.00 0.00 0.00 66 1030.9
20260504130118 59 231 0.0 0.0 0.00 0.00 0.00 67 1030.9
20260504120204 53 352 0.0 0.0 0.00 0.00 0.00 69 1014.5
20260504110703 43 321 0.0 0.0 0.00 0.00 0.00 81 1014.6
20260504110508 43 321 0.0 0.0 0.00 0.00 0.00 81 1031.3
20260504110204 42 321 0.0 0.0 0.00 0.00 0.00 80 1014.5
20260504100425 37 329 0.0 0.0 0.00 0.00 0.00 89 1031.3
20260504100204 37 329 0.0 0.0 0.00 0.00 0.00 89 1014.7
20260504081818 37 328 0.0 0.0 0.00 0.00 0.00 88 1031.2
20260504081704 37 328 0.0 0.0 0.00 0.00 0.00 89 1014.8
20260504081315 37 328 0.0 0.0 0.00 0.00 0.00 89 1031.2
20260504081204 37 328 0.0 0.0 0.00 0.00 0.00 89 1014.6
20260504080811 37 328 0.0 0.0 0.00 0.00 0.00 89 1031.2
20260504080308 37 328 0.0 0.0 0.00 0.00 0.00 89 1031.2
20260504080203 37 328 0.0 0.0 0.00 0.00 0.00 89 1014.5
20260504070235 38 328 0.0 0.0 0.00 0.00 0.00 86 1031.2
20260504070203 38 328 0.0 0.0 0.00 0.00 0.00 86 1014.6
20260504060204 39 327 0.0 0.0 0.00 0.00 0.00 85 1014.4
20260504060156 39 327 0.0 0.0 0.00 0.00 0.00 84 1031.0
20260504050703 40 326 0.0 0.0 0.00 0.00 0.00 83 1014.7
20260504050624 40 326 0.0 0.0 0.00 0.00 0.00 83 1031.4
20260504050203 40 326 0.0 0.0 0.00 0.00 0.00 82 1014.6
20260504050121 40 326 0.0 0.0 0.00 0.00 0.00 82 1031.3
20260504045618 40 326 0.0 0.0 0.00 0.00 0.00 82 1031.2
20260504045203 40 326 0.0 0.0 0.00 0.00 0.00 84 1014.6
20260504045118 40 326 0.0 0.0 0.00 0.00 0.00 84 1031.2
20260504044703 40 326 0.0 0.0 0.00 0.00 0.00 84 1014.5
20260504044616 40 326 0.0 0.0 0.00 0.00 0.00 84 1031.1
20260504044203 40 326 0.0 0.0 0.00 0.00 0.00 82 1014.4
20260504044112 40 326 0.0 0.0 0.00 0.00 0.00 82 1031.1
20260504043703 41 326 0.0 0.0 0.00 0.00 0.00 81 1014.5
20260504043609 41 326 0.0 0.0 0.00 0.00 0.00 81 1031.1
20260504043204 40 326 0.0 0.0 0.00 0.00 0.00 83 1014.4
20260504043107 40 326 0.0 0.0 0.00 0.00 0.00 83 1031.0
20260504042703 40 326 0.0 0.0 0.00 0.00 0.00 84 1014.5
20260504042604 40 326 0.0 0.0 0.00 0.00 0.00 84 1031.2
20260504042203 40 327 0.0 0.0 0.00 0.00 0.00 84 1014.3
20260504042100 40 327 0.0 0.0 0.00 0.00 0.00 84 1031.1
20260504041704 40 327 0.0 0.0 0.00 0.00 0.00 84 1014.2
20260504041556 40 327 0.0 0.0 0.00 0.00 0.00 84 1030.8
20260504041204 40 327 0.0 0.0 0.00 0.00 0.00 84 1014.1
20260504041053 40 327 0.0 0.0 0.00 0.00 0.00 84 1030.7
20260504040550 40 327 0.0 0.0 0.00 0.00 0.00 83 1031.0
20260504040047 40 327 0.0 0.0 0.00 0.00 0.00 83 1030.6
20260504035543 40 327 0.0 0.0 0.00 0.00 0.00 83 1030.8
20260504035040 40 327 0.0 0.0 0.00 0.00 0.00 82 1030.8
20260504034703 40 327 0.0 0.0 0.00 0.00 0.00 82 1014.1
20260504034538 40 327 0.0 0.0 0.00 0.00 0.00 82 1030.8
20260504034203 40 327 0.0 0.0 0.00 0.00 0.00 81 1014.2
20260504034034 40 327 0.0 0.0 0.00 0.00 0.00 81 1030.9
20260504033703 41 326 0.0 0.0 0.00 0.00 0.00 80 1014.1
20260504033532 41 326 0.0 0.0 0.00 0.00 0.00 80 1030.7
20260504033204 41 327 0.0 0.0 0.00 0.00 0.00 81 1014.0
20260504033030 41 327 0.0 0.0 0.00 0.00 0.00 81 1030.7
20260504032703 41 327 0.0 0.0 0.00 0.00 0.00 80 1014.0
20260504032526 41 327 0.0 0.0 0.00 0.00 0.00 80 1030.9
20260504032203 41 327 0.0 0.0 0.00 0.00 0.00 79 1013.9
20260504032023 42 327 0.0 0.0 0.00 0.00 0.00 79 1030.8
20260504031520 42 327 0.0 0.0 0.00 0.00 0.00 76 1030.6
20260504031207 42 326 0.0 0.0 0.00 0.00 0.00 77 1013.9
20260504031016 42 326 0.0 0.0 0.00 0.00 0.00 77 1030.6
20260504030703 42 326 0.0 0.0 0.00 0.00 0.00 76 1014.0
20260504030514 43 326 0.0 0.0 0.00 0.00 0.00 75 1030.5
20260504030010 43 326 0.0 0.0 0.00 0.00 0.00 74 1030.7
20260504025703 43 326 0.0 0.0 0.00 0.00 0.00 75 1013.8
20260504025507 42 326 0.0 0.0 0.00 0.00 0.00 75 1030.5
20260504025204 42 327 0.0 0.0 0.00 0.00 0.00 77 1013.8
20260504025004 42 327 0.0 0.0 0.00 0.00 0.00 78 1030.6
20260504024703 41 327 0.0 0.0 0.00 0.00 0.00 78 1013.9
20260504024500 42 327 0.0 0.0 0.00 0.00 0.00 78 1030.7
20260504024203 42 327 0.0 0.0 0.00 0.00 0.00 78 1014.0
20260504023958 42 327 0.0 0.0 0.00 0.00 0.00 78 1030.5
20260504023704 43 327 0.0 0.0 0.00 0.00 0.00 77 1013.8
20260504023454 43 327 0.0 0.0 0.00 0.00 0.00 76 1030.8
20260504023203 43 327 0.0 0.0 0.00 0.00 0.00 74 1014.0
20260504022950 44 327 0.0 0.0 0.00 0.00 0.00 74 1030.6
20260504022703 43 327 0.0 0.0 0.00 0.00 0.00 74 1014.0
20260504022446 43 326 0.0 0.0 0.00 0.00 0.00 74 1030.7
20260504022203 43 326 0.0 0.0 0.00 0.00 0.00 74 1013.9
20260504021943 43 326 0.0 0.0 0.00 0.00 0.00 74 1030.5
20260504021704 43 326 0.0 0.0 0.00 0.00 0.00 73 1014.0
20260504021440 44 326 0.0 0.0 0.00 0.00 0.00 73 1030.6
20260504021204 44 327 0.0 0.0 0.00 0.00 0.00 72 1013.9
20260504020937 44 326 0.0 0.0 0.00 0.00 0.00 72 1030.7
20260504020704 45 326 0.0 0.0 0.00 0.00 0.00 70 1014.0
20260504020434 45 326 0.0 0.0 0.00 0.00 0.00 70 1030.5
20260504015931 45 326 0.0 0.0 0.00 0.00 0.00 70 1030.7
20260504015703 45 326 0.0 0.0 0.00 0.00 0.00 70 1014.0
20260504015426 45 326 0.0 0.0 0.00 0.00 0.00 69 1030.7
20260504015204 45 326 0.0 0.0 0.00 0.00 0.00 71 1013.9
20260504014923 45 326 0.0 0.0 0.00 0.00 0.00 71 1030.5
20260504014704 45 326 0.0 0.0 0.00 0.00 0.00 70 1013.7
20260504014419 46 326 0.0 0.0 0.00 0.00 0.00 67 1030.6
20260504013916 46 326 0.0 0.0 0.00 0.00 0.00 64 1030.6
20260504013704 47 326 0.0 0.0 0.00 0.00 0.00 63 1013.6
20260504013415 47 326 0.0 0.0 0.00 0.00 0.00 64 1030.3
20260504013204 47 327 0.0 0.0 0.00 0.00 0.00 64 1013.8
20260504012910 47 326 0.0 0.0 0.00 0.00 0.00 63 1030.4
20260504012704 47 326 0.0 0.0 0.00 0.00 0.00 62 1013.8
20260504012408 47 326 0.0 0.0 0.00 0.00 0.00 60 1030.2
20260504012204 47 327 0.0 0.0 0.00 0.00 0.00 61 1013.7
20260504011905 47 327 0.0 0.0 0.00 0.00 0.00 61 1030.5
20260504011704 47 327 0.0 0.0 0.00 0.00 0.00 62 1013.7
20260504011402 48 327 0.0 0.0 0.00 0.00 0.00 61 1030.0
20260504010858 47 327 0.0 0.0 0.00 0.00 0.00 59 1030.4
20260504010704 47 327 0.0 0.0 0.00 0.00 0.00 60 1013.5
20260504010354 48 326 0.0 0.0 0.00 0.00 0.00 59 1030.3
20260504010204 48 326 0.0 0.0 0.00 0.00 0.00 58 1013.5
20260504005850 48 326 0.0 0.0 0.00 0.00 0.00 57 1030.2
20260504005704 49 326 0.0 0.0 0.00 0.00 0.00 56 1013.4
20260504005347 49 326 0.0 0.0 0.00 0.00 0.00 55 1029.9
20260504005204 49 327 0.0 0.0 0.00 0.00 0.00 54 1013.5
20260504004845 49 327 0.0 0.0 0.00 0.00 0.00 55 1030.0
20260504004704 50 326 0.0 0.0 0.00 0.00 0.00 55 1013.2
20260504004343 50 326 0.0 0.0 0.00 0.00 0.00 53 1030.2
20260504004204 50 326 0.0 0.0 0.00 0.00 0.00 54 1013.1
20260504003839 50 326 0.0 0.0 0.00 0.00 0.00 53 1030.1
20260504003704 51 327 0.0 0.0 0.00 0.00 0.00 52 1013.3
20260504003336 51 326 0.0 0.0 0.00 0.00 0.00 53 1029.8
20260504002832 51 326 0.0 0.0 0.00 0.00 0.00 53 1029.8
20260504002329 51 326 0.0 0.0 0.00 0.00 0.00 54 1029.7
20260504002204 52 326 0.0 0.0 0.00 0.00 0.00 52 1013.0
20260504001827 52 326 0.0 0.0 0.00 0.00 0.00 52 1029.5
20260504001703 52 326 0.0 0.0 0.00 0.00 0.00 51 1012.9
20260504001324 52 326 0.0 0.0 0.00 0.00 0.00 51 1029.6
20260504000821 52 327 0.0 0.0 0.00 0.00 0.00 52 1029.6
20260504000318 52 257 0.0 0.0 0.00 0.00 0.00 51 1029.4
20260504000204 52 258 0.0 0.0 0.00 0.00 0.00 51 1012.9
20260503235815 53 123 0.0 0.0 0.00 0.00 0.00 52 1029.2
20260503235703 53 119 0.0 0.0 0.00 0.00 0.00 51 1012.7
20260503235313 53 268 0.0 0.0 0.00 0.00 0.00 50 1029.2
20260503235204 53 289 0.0 0.0 0.00 0.00 0.00 50 1012.6
20260503234810 54 300 0.0 0.0 0.00 0.00 0.00 50 1029.3
20260503234308 54 331 0.0 0.0 0.00 0.00 0.00 48 1029.1
20260503234204 54 284 0.0 0.0 0.00 0.00 0.00 47 1012.6
20260503233806 55 268 0.0 0.0 0.00 0.00 0.00 46 1029.4
20260503233705 55 279 0.0 0.0 0.00 0.00 0.00 48 1012.6
20260503233300 55 279 0.0 0.0 0.00 0.00 0.00 46 1029.2
20260503233203 55 286 0.0 0.0 0.00 0.00 0.00 47 1012.5
20260503232758 56 277 0.0 0.0 0.00 0.00 0.00 46 1029.2
20260503232704 56 264 0.0 0.0 0.00 0.00 0.00 46 1012.5
20260503232255 56 252 0.0 0.0 0.00 0.00 0.00 44 1029.2
20260503232204 56 244 0.0 0.0 0.00 0.00 0.00 45 1012.5
20260503231753 57 281 0.0 0.0 0.00 0.00 0.00 44 1029.1
20260503231704 56 262 0.0 1.0 0.00 0.00 0.00 43 1012.7
20260503231250 57 197 0.0 2.0 0.00 0.00 0.00 43 1029.3
20260503231204 56 128 0.0 1.0 0.00 0.00 0.00 43 1012.6
20260503230746 57 251 0.0 0.0 0.00 0.00 0.00 45 1029.3
20260503230704 57 248 0.0 1.0 0.00 0.00 0.00 44 1012.6
20260503230244 57 263 0.0 0.0 0.00 0.00 0.00 43 1029.1
20260503225741 57 270 0.0 0.0 0.00 0.00 0.00 45 1029.2
20260503225704 58 275 0.0 3.0 0.00 0.00 0.00 43 1012.4
20260503225241 58 303 0.0 0.0 0.00 0.00 0.00 43 1028.9
20260503225204 58 293 0.0 8.0 0.00 0.00 0.00 42 1012.6
20260503224738 58 287 0.0 0.0 0.00 0.00 0.00 43 1029.1
20260503224703 58 269 0.0 1.0 0.00 0.00 0.00 42 1012.4
20260503224236 58 275 0.0 0.0 0.00 0.00 0.00 42 1029.1
20260503224204 58 273 1.0 8.0 0.00 0.00 0.00 42 1012.3